Overview Statistics Trail Chart Weather Telemetry Raw packets
 

This is the latest recevied weather packets stored in our database for station/object GW4003. If no packets are shown the sender has not sent any weather packets the latest 10 day(s).

<< 33 34 35 36 37 38 39 >>
Time Temp. Humidity Pressure Rain* Wind** Luminosity Snow
1788409362 19.44° C 72% 1018.7 hPa 0 mm - - -
1788409058 19.44° C 74% 1018.6 hPa 0 mm - - -
1788408755 19.44° C 73% 1018.6 hPa 0 mm - - -
1788408451 19.44° C 72% 1018.5 hPa 0 mm - - -
1788408147 19.44° C 71% 1018.4 hPa 0 mm - - -
1788407843 18.89° C 70% 1018 hPa 0 mm - - -
1788407539 18.89° C 72% 1018 hPa 0.51 mm - - -
1788407236 18.89° C 72% 1018 hPa 3.81 mm - - -
1788406932 18.89° C 71% 1018 hPa 4.06 mm - - -
1788406629 18.89° C 71% 1018.2 hPa 4.06 mm - - -
1788406324 19.44° C 70% 1018.2 hPa 4.06 mm - - -
1788406024 19.44° C 70% 1018.1 hPa 4.06 mm - - -
1788405720 19.44° C 68% 1018.1 hPa 4.06 mm - - -
1788405417 19.44° C 67% 1018.1 hPa 4.06 mm - - -
1788405112 20° C 65% 1018.1 hPa 4.06 mm - - -
1788404809 21.11° C 63% 1018.4 hPa 4.06 mm - - -
1788404505 22.22° C 61% 1018.6 hPa 4.06 mm - - -
1788404202 23.33° C 57% 1018.4 hPa 4.06 mm - - -
1788403898 25° C 54% 1018.9 hPa 2.54 mm - - -
1788403594 25° C 42% 1018.9 hPa 0 mm - - -
1788403290 25° C 40% 1018.5 hPa 0 mm - - -
1788402986 25° C 39% 1018 hPa 0 mm - - -
1788402682 25° C 39% 1017.4 hPa 0 mm - - -
1788402379 25° C 38% 1016.9 hPa 0 mm - - -
1788402074 25.56° C 37% 1016.9 hPa 0 mm - - -

* Rain latest hour (hover to see other rain measurements)
** Current wind speed in m/s (hover to see current wind gust speed)